N1OTX Weather Reports


time (UTC)temp
C
wind
direction
speed
KPH
gust
KPH
rain 1hr
cm
rain 24hr
cm
rain mn
cm
humidity
%
barometer
mb
20260831000020 23 198 1.6 4.8 0.00 0.00 0.00 64 1015.5
20260830233019 23 144 1.6 4.8 0.00 0.00 0.00 62 1015.4
20260830232519 23 287 1.6 12.9 0.00 0.00 0.00 62 1015.3
20260830232101 24 208 3.2 12.9 0.00 0.00 0.00 61 1015.3
20260830231519 24 204 3.2 14.5 0.00 0.00 0.00 60 1015.4
20260830231020 24 205 3.2 11.3 0.00 0.00 0.00 59 1015.4
20260830230520 24 166 1.6 9.7 0.00 0.00 0.00 59 1015.5
20260830230020 24 203 3.2 11.3 0.00 0.00 0.00 58 1015.5
20260830225520 24 170 1.6 11.3 0.00 0.00 0.00 57 1015.5
20260830225019 25 185 3.2 16.1 0.00 0.00 0.00 56 1015.6
20260830224519 25 212 3.2 16.1 0.00 0.00 0.00 56 1015.6
20260830224019 25 252 1.6 3.2 0.00 0.00 0.00 56 1015.6
20260830223539 25 241 1.6 11.3 0.00 0.00 0.00 55 1015.6
20260830223020 25 201 3.2 11.3 0.00 0.00 0.00 55 1015.8
20260830222520 25 245 1.6 9.7 0.00 0.00 0.00 54 1015.8
20260830222020 25 207 3.2 16.1 0.00 0.00 0.00 54 1015.8
20260830221520 25 208 1.6 4.8 0.00 0.00 0.00 54 1015.8
20260830221019 25 159 0.0 11.3 0.00 0.00 0.00 53 1015.7
20260830220519 25 204 1.6 11.3 0.00 0.00 0.00 54 1015.8
20260830220040 25 201 3.2 9.7 0.00 0.00 0.00 53 1015.7
20260830215519 25 227 3.2 11.3 0.00 0.00 0.00 53 1015.9
20260830215021 25 299 1.6 9.7 0.00 0.00 0.00 53 1015.9
20260830214521 25 254 1.6 9.7 0.00 0.00 0.00 53 1015.8
20260830214020 25 237 1.6 9.7 0.00 0.00 0.00 51 1015.9
20260830213520 25 190 1.6 9.7 0.00 0.00 0.00 52 1016.1
20260830213040 25 234 0.0 6.4 0.00 0.00 0.00 51 1016.0
20260830212520 25 205 3.2 11.3 0.00 0.00 0.00 51 1016.1
20260830212019 25 210 1.6 11.3 0.00 0.00 0.00 52 1016.1
20260830211519 25 141 1.6 9.7 0.00 0.00 0.00 52 1016.0
20260830211019 25 202 1.6 9.7 0.00 0.00 0.00 52 1016.1
20260830210520 25 233 1.6 11.3 0.00 0.00 0.00 53 1016.0
20260830210043 25 239 1.6 11.3 0.00 0.00 0.00 53 1015.9
20260830205520 25 210 3.2 12.9 0.00 0.00 0.00 54 1015.9
20260830205020 25 242 1.6 4.8 0.00 0.00 0.00 53 1015.9
20260830204519 25 202 1.6 11.3 0.00 0.00 0.00 54 1015.8
20260830204019 25 173 1.6 9.7 0.00 0.00 0.00 53 1016.0
20260830203519 25 180 1.6 6.4 0.00 0.00 0.00 54 1016.1
20260830203020 25 244 0.0 3.2 0.00 0.00 0.00 53 1016.1
20260830202521 25 193 0.0 9.7 0.00 0.00 0.00 54 1016.2
20260830202020 25 198 1.6 9.7 0.00 0.00 0.00 52 1016.2
20260830201540 25 218 1.6 9.7 0.00 0.00 0.00 50 1016.3
20260830201020 26 138 1.6 14.5 0.00 0.00 0.00 51 1016.4
20260830200519 26 225 3.2 14.5 0.00 0.00 0.00 52 1016.5
20260830200020 26 26 1.6 3.2 0.00 0.00 0.00 52 1016.5
20260830195539 26 215 1.6 6.4 0.00 0.00 0.00 52 1016.5
20260830195021 26 223 1.6 4.8 0.00 0.00 0.00 52 1016.5
20260830194521 26 31 0.0 4.8 0.00 0.00 0.00 53 1016.7
20260830194020 26 318 1.6 9.7 0.00 0.00 0.00 51 1016.8
20260830193520 26 270 1.6 6.4 0.00 0.00 0.00 51 1016.8
20260830193040 26 216 3.2 14.5 0.00 0.00 0.00 50 1016.9
20260830192520 26 287 3.2 11.3 0.00 0.00 0.00 50 1017.0
20260830192039 26 261 1.6 9.7 0.00 0.00 0.00 48 1017.0
20260830191540 26 286 3.2 9.7 0.00 0.00 0.00 49 1017.1
20260830191019 26 302 3.2 9.7 0.00 0.00 0.00 49 1017.1
20260830190519 26 275 1.6 14.5 0.00 0.00 0.00 48 1017.3
20260830190042 26 297 1.6 12.9 0.00 0.00 0.00 48 1017.3
20260830185520 26 327 1.6 6.4 0.00 0.00 0.00 47 1017.3
20260830185020 26 322 0.0 9.7 0.00 0.00 0.00 47 1017.3
20260830184520 27 294 3.2 11.3 0.00 0.00 0.00 48 1017.3
20260830184020 27 340 1.6 4.8 0.00 0.00 0.00 46 1017.4
20260830183519 26 207 1.6 6.4 0.00 0.00 0.00 45 1017.4
20260830183019 26 317 1.6 6.4 0.00 0.00 0.00 46 1017.4
20260830182519 26 296 3.2 9.7 0.00 0.00 0.00 45 1017.4
20260830182021 26 303 1.6 9.7 0.00 0.00 0.00 46 1017.5
20260830181518 26 34 1.6 4.8 0.00 0.00 0.00 46 1017.5
20260830181020 27 298 3.2 11.3 0.00 0.00 0.00 46 1017.4
20260830180540 27 293 3.2 16.1 0.00 0.00 0.00 45 1017.5
20260830180020 27 214 3.2 14.5 0.00 0.00 0.00 45 1017.7
20260830175519 27 265 4.8 20.9 0.00 0.00 0.00 45 1017.8
20260830175019 27 320 1.6 9.7 0.00 0.00 0.00 45 1017.8
20260830174519 27 267 1.6 11.3 0.00 0.00 0.00 46 1017.9
20260830174041 27 96 3.2 11.3 0.00 0.00 0.00 47 1017.8
20260830173520 27 88 1.6 9.7 0.00 0.00 0.00 50 1017.7
20260830173040 27 49 1.6 9.7 0.00 0.00 0.00 47 1017.8
20260830172520 27 347 3.2 6.4 0.00 0.00 0.00 47 1017.9
20260830172020 27 335 3.2 6.4 0.00 0.00 0.00 47 1017.9
20260830171540 27 3 1.6 6.4 0.00 0.00 0.00 46 1017.9
20260830171019 27 53 3.2 6.4 0.00 0.00 0.00 45 1018.0
20260830170519 27 33 1.6 9.7 0.00 0.00 0.00 45 1017.9
20260830170019 27 18 3.2 6.4 0.00 0.00 0.00 46 1018.1
20260830165521 27 21 3.2 9.7 0.00 0.00 0.00 45 1018.2
20260830165020 27 34 3.2 12.9 0.00 0.00 0.00 46 1018.3
20260830164520 27 8 3.2 12.9 0.00 0.00 0.00 45 1018.5
20260830164040 27 338 3.2 12.9 0.00 0.00 0.00 45 1018.3
20260830163520 27 4 3.2 9.7 0.00 0.00 0.00 45 1018.3
20260830163039 27 336 3.2 24.1 0.00 0.00 0.00 46 1018.3
20260830162519 27 358 3.2 24.1 0.00 0.00 0.00 49 1018.4
20260830162019 26 7 3.2 12.9 0.00 0.00 0.00 49 1018.6
20260830161519 26 74 1.6 4.8 0.00 0.00 0.00 48 1018.6
20260830161020 26 4 1.6 12.9 0.00 0.00 0.00 50 1018.6
20260830160541 26 51 1.6 6.4 0.00 0.00 0.00 47 1018.6
20260830160040 27 16 3.2 14.5 0.00 0.00 0.00 48 1018.6
20260830155520 27 327 3.2 12.9 0.00 0.00 0.00 48 1018.5
20260830155020 27 259 3.2 11.3 0.00 0.00 0.00 49 1018.7
20260830154520 27 292 3.2 11.3 0.00 0.00 0.00 48 1018.7
20260830154019 27 208 3.2 6.4 0.00 0.00 0.00 51 1018.7
20260830153539 26 306 3.2 9.7 0.00 0.00 0.00 51 1018.6
20260830153039 26 331 3.2 9.7 0.00 0.00 0.00 52 1018.6
20260830152520 26 329 3.2 12.9 0.00 0.00 0.00 52 1018.9
20260830152101 26 197 3.2 14.5 0.00 0.00 0.00 53 1019.0
20260830151520 26 310 1.6 14.5 0.00 0.00 0.00 55 1019.1
20260830151020 25 268 1.6 4.8 0.00 0.00 0.00 53 1019.1
20260830150540 25 278 3.2 12.9 0.00 0.00 0.00 54 1019.2
20260830150020 26 340 3.2 11.3 0.00 0.00 0.00 52 1019.0
20260830145519 26 221 3.2 11.3 0.00 0.00 0.00 52 1019.1
20260830145019 26 189 3.2 14.5 0.00 0.00 0.00 52 1019.1
20260830144519 25 281 3.2 12.9 0.00 0.00 0.00 52 1019.1
20260830144021 25 281 1.6 9.7 0.00 0.00 0.00 54 1019.3
20260830143520 25 169 1.6 11.3 0.00 0.00 0.00 52 1019.3
20260830143020 25 226 3.2 11.3 0.00 0.00 0.00 52 1019.3
20260830142520 25 303 3.2 9.7 0.00 0.00 0.00 52 1019.4
20260830142019 25 326 3.2 6.4 0.00 0.00 0.00 54 1019.3
20260830141519 25 22 3.2 9.7 0.00 0.00 0.00 53 1019.4
20260830141019 25 205 3.2 11.3 0.00 0.00 0.00 53 1019.5
20260830140519 25 306 3.2 11.3 0.00 0.00 0.00 54 1019.5
20260830140023 25 77 1.6 9.7 0.00 0.00 0.00 55 1019.6
20260830135520 24 277 3.2 11.3 0.00 0.00 0.00 56 1019.7
20260830135020 23 271 3.2 11.3 0.00 0.00 0.00 58 1019.6
20260830134520 23 320 1.6 6.4 0.00 0.00 0.00 57 1019.6
20260830134019 23 312 3.2 11.3 0.00 0.00 0.00 57 1019.4
20260830133519 23 255 3.2 14.5 0.00 0.00 0.00 59 1019.5
20260830133039 23 251 3.2 11.3 0.00 0.00 0.00 59 1019.6
20260830132519 23 253 3.2 11.3 0.00 0.00 0.00 59 1019.7
20260830132020 22 191 1.6 11.3 0.00 0.00 0.00 61 1019.8
20260830131520 22 251 3.2 6.4 0.00 0.00 0.00 60 1019.8
20260830131020 22 271 1.6 6.4 0.00 0.00 0.00 61 1019.8
20260830130520 22 330 1.6 6.4 0.00 0.00 0.00 61 1019.9
20260830130020 22 259 1.6 9.7 0.00 0.00 0.00 59 1019.9
20260830125519 22 261 3.2 4.8 0.00 0.00 0.00 61 1020.0
20260830125019 22 271 1.6 4.8 0.00 0.00 0.00 63 1020.0
20260830124519 22 200 1.6 4.8 0.00 0.00 0.00 63 1020.0
20260830124019 21 134 1.6 6.4 0.00 0.00 0.00 63 1020.0
20260830123540 21 226 1.6 4.8 0.00 0.00 0.00 65 1020.0
20260830123020 21 266 0.0 6.4 0.00 0.00 0.00 65 1020.0
20260830122520 21 179 1.6 6.4 0.00 0.00 0.00 64 1020.1
20260830122100 21 186 1.6 4.8 0.00 0.00 0.00 66 1020.2
20260830121539 20 196 3.2 11.3 0.00 0.00 0.00 65 1020.4
20260830121019 20 191 1.6 4.8 0.00 0.00 0.00 66 1020.3
20260830120519 20 187 1.6 4.8 0.00 0.00 0.00 68 1020.2
20260830120019 18 173 1.6 4.8 0.00 0.00 0.00 70 1020.3
20260830115521 18 226 0.0 4.8 0.00 0.00 0.00 72 1020.2
20260830115020 18 307 0.0 3.2 0.00 0.00 0.00 71 1020.3
20260830114520 18 110 1.6 4.8 0.00 0.00 0.00 71 1020.3
20260830114040 18 247 0.0 3.2 0.00 0.00 0.00 71 1020.4
20260830113520 18 323 0.0 1.6 0.00 0.00 0.00 71 1020.3
20260830113020 18 80 1.6 3.2 0.00 0.00 0.00 71 1020.3
20260830112520 18 125 1.6 3.2 0.00 0.00 0.00 72 1020.2
20260830112020 18 185 1.6 3.2 0.00 0.00 0.00 72 1020.3
20260830111520 17 153 1.6 3.2 0.00 0.00 0.00 72 1020.3
20260830111040 17 144 1.6 3.2 0.00 0.00 0.00 73 1020.3
20260830110519 17 144 1.6 3.2 0.00 0.00 0.00 73 1020.3
20260830110040 17 112 0.0 3.2 0.00 0.00 0.00 73 1020.4
20260830105519 17 162 1.6 3.2 0.00 0.00 0.00 73 1020.4
20260830105018 17 197 1.6 6.4 0.00 0.00 0.00 73 1020.3
20260830104520 17 193 1.6 6.4 0.00 0.00 0.00 73 1020.2
20260830104020 17 145 1.6 3.2 0.00 0.00 0.00 74 1020.2
20260830103540 17 179 1.6 4.8 0.00 0.00 0.00 75 1020.2
20260830103020 17 172 0.0 3.2 0.00 0.00 0.00 74 1020.3
20260830102519 16 182 0.0 3.2 0.00 0.00 0.00 74 1020.4
20260830102019 16 151 1.6 3.2 0.00 0.00 0.00 74 1020.3
20260830101519 17 140 0.0 1.6 0.00 0.00 0.00 74 1020.3
20260830101019 17 161 0.0 1.6 0.00 0.00 0.00 74 1020.5
20260830100519 17 325 0.0 3.2 0.00 0.00 0.00 74 1020.4
20260830100020 17 6 0.0 3.2 0.00 0.00 0.00 74 1020.4
20260830095520 17 181 0.0 3.2 0.00 0.00 0.00 74 1020.2
20260830095020 16 135 0.0 3.2 0.00 0.00 0.00 75 1020.3
20260830094520 16 176 0.0 3.2 0.00 0.00 0.00 76 1020.2
20260830094019 16 66 0.0 1.6 0.00 0.00 0.00 77 1020.2
20260830093539 17 197 0.0 3.2 0.00 0.00 0.00 76 1020.2
20260830093039 17 217 0.0 3.2 0.00 0.00 0.00 76 1020.2
20260830092519 16 178 0.0 1.6 0.00 0.00 0.00 76 1020.2
20260830091520 16 137 0.0 1.6 0.00 0.00 0.00 77 1020.3
20260830091020 16 154 1.6 1.6 0.00 0.00 0.00 78 1020.4
20260830090520 16 156 1.6 3.2 0.00 0.00 0.00 77 1020.5
20260830090020 16 193 0.0 3.2 0.00 0.00 0.00 78 1020.6
20260830085520 16 204 0.0 3.2 0.00 0.00 0.00 80 1020.8
20260830085019 16 184 0.0 1.6 0.00 0.00 0.00 80 1020.8
20260830084519 16 190 0.0 4.8 0.00 0.00 0.00 80 1020.7
20260830084019 15 196 0.0 4.8 0.00 0.00 0.00 82 1020.8
20260830083518 15 0.0 0.0 0.00 0.00 0.00 81 1020.8
20260830083020 15 177 0.0 3.2 0.00 0.00 0.00 81 1021.1
20260830082545 15 170 0.0 1.6 0.00 0.00 0.00 81 1021.0
20260830082019 15 172 0.0 1.6 0.00 0.00 0.00 82 1021.0
20260830081540 15 196 0.0 4.8 0.00 0.00 0.00 83 1021.0
20260830081019 15 0.0 0.0 0.00 0.00 0.00 85 1021.0
20260830080519 15 170 0.0 3.2 0.00 0.00 0.00 85 1021.0
20260830080023 15 177 0.0 3.2 0.00 0.00 0.00 85 1021.0
20260830075519 15 0.0 0.0 0.00 0.00 0.00 85 1020.9
20260830075019 15 0.0 0.0 0.00 0.00 0.00 85 1020.9
20260830074520 15 0.0 0.0 0.00 0.00 0.00 85 1020.8
20260830074020 15 0.0 0.0 0.00 0.00 0.00 85 1020.8
20260830073540 15 0.0 0.0 0.00 0.00 0.00 85 1020.8
20260830073020 15 0.0 0.0 0.00 0.00 0.00 85 1020.8
20260830072539 15 0.0 0.0 0.00 0.00 0.00 85 1020.7
20260830072019 15 0.0 1.6 0.00 0.00 0.00 85 1020.8
20260830071519 15 217 0.0 1.6 0.00 0.00 0.00 85 1020.8
20260830071019 15 0.0 0.0 0.00 0.00 0.00 85 1020.7
20260830070518 15 0.0 0.0 0.00 0.00 0.00 84 1020.6
20260830070020 15 0.0 0.0 0.00 0.00 0.00 84 1020.6
20260830065520 15 215 0.0 1.6 0.00 0.00 0.00 84 1020.5
20260830065020 15 0.0 0.0 0.00 0.00 0.00 84 1020.7
20260830064520 15 0.0 1.6 0.00 0.00 0.00 84 1020.6
20260830064019 15 216 0.0 3.2 0.00 0.00 0.00 84 1020.6
20260830063519 15 232 0.0 3.2 0.00 0.00 0.00 84 1020.7
20260830063019 15 0.0 1.6 0.00 0.00 0.00 84 1020.8
20260830062519 15 0.0 0.0 0.00 0.00 0.00 84 1020.8
20260830062018 14 0.0 0.0 0.00 0.00 0.00 84 1020.8
20260830061540 14 0.0 0.0 0.00 0.00 0.00 84 1020.8
20260830061020 14 0.0 0.0 0.00 0.00 0.00 84 1020.8
20260830060520 14 0.0 0.0 0.00 0.00 0.00 84 1021.0
20260830060020 14 0.0 0.0 0.00 0.00 0.00 84 1021.0
20260830055519 14 0.0 0.0 0.00 0.00 0.00 84 1021.0
20260830055019 14 297 0.0 1.6 0.00 0.00 0.00 83 1020.8
20260830054519 14 0.0 0.0 0.00 0.00 0.00 83 1020.9
20260830054019 14 0.0 0.0 0.00 0.00 0.00 83 1020.9
20260830053518 14 0.0 0.0 0.00 0.00 0.00 83 1021.0
20260830053020 14 0.0 0.0 0.00 0.00 0.00 83 1021.0
20260830052520 14 0.0 0.0 0.00 0.00 0.00 83 1021.0
20260830052020 14 0.0 0.0 0.00 0.00 0.00 83 1021.1
20260830051520 14 0.0 0.0 0.00 0.00 0.00 83 1021.1
20260830051019 14 0.0 0.0 0.00 0.00 0.00 83 1021.0
20260830050519 14 0.0 0.0 0.00 0.00 0.00 83 1021.0
20260830050019 14 0.0 0.0 0.00 0.00 0.00 83 1021.1
20260830045539 14 0.0 0.0 0.00 0.00 0.00 83 1021.0
20260830045039 14 0.0 0.0 0.00 0.00 0.00 83 1021.0
20260830044520 14 0.0 0.0 0.00 0.00 0.00 84 1020.9
20260830044040 14 0.0 0.0 0.00 0.00 0.00 83 1020.9
20260830043519 14 0.0 0.0 0.00 0.00 0.00 83 1020.9
20260830043019 14 0.0 0.0 0.00 0.00 0.00 82 1020.9
20260830042519 14 0.0 0.0 0.00 0.00 0.00 82 1020.9
20260830042019 14 0.0 0.0 0.00 0.00 0.00 81 1020.9
20260830041519 15 0.0 0.0 0.00 0.00 0.00 81 1020.9
20260830041020 15 0.0 0.0 0.00 0.00 0.00 80 1020.9
20260830040520 15 0.0 0.0 0.00 0.00 0.00 80 1020.9
20260830040024 15 0.0 0.0 0.00 0.00 0.00 79 1020.9
20260830035520 15 0.0 0.0 0.00 0.00 0.00 79 1020.9
20260830035020 15 0.0 0.0 0.00 0.00 0.00 79 1021.0
20260830034540 15 0.0 0.0 0.00 0.00 0.00 78 1021.0
20260830034019 15 0.0 0.0 0.00 0.00 0.00 78 1021.0
20260830033519 15 0.0 0.0 0.00 0.00 0.00 78 1021.0
20260830033021 15 0.0 0.0 0.00 0.00 0.00 78 1020.9
20260830032521 15 0.0 0.0 0.00 0.00 0.00 78 1020.9
20260830032021 15 0.0 0.0 0.00 0.00 0.00 78 1021.0
20260830031520 15 0.0 0.0 0.00 0.00 0.00 78 1021.0
20260830031020 15 0.0 0.0 0.00 0.00 0.00 78 1021.0
20260830030520 15 0.0 0.0 0.00 0.00 0.00 78 1021.0
20260830030020 15 0.0 0.0 0.00 0.00 0.00 77 1020.9
20260830025519 15 0.0 0.0 0.00 0.00 0.00 77 1021.0
20260830025019 15 0.0 0.0 0.00 0.00 0.00 77 1021.0
20260830024521 15 298 0.0 1.6 0.00 0.00 0.00 77 1021.0
20260830024021 15 0.0 0.0 0.00 0.00 0.00 77 1021.0
20260830023541 15 300 0.0 1.6 0.00 0.00 0.00 77 1021.0
20260830023040 15 303 0.0 1.6 0.00 0.00 0.00 77 1021.0
20260830022520 15 328 0.0 1.6 0.00 0.00 0.00 76 1021.1
20260830022019 15 0.0 0.0 0.00 0.00 0.00 76 1021.0
20260830021519 16 0.0 0.0 0.00 0.00 0.00 74 1020.9
20260830021039 16 0.0 0.0 0.00 0.00 0.00 74 1021.0
20260830020519 16 0.0 0.0 0.00 0.00 0.00 74 1020.9
20260830020041 16 0.0 0.0 0.00 0.00 0.00 74 1021.0
20260830015521 16 0.0 0.0 0.00 0.00 0.00 75 1021.0
20260830015040 16 0.0 0.0 0.00 0.00 0.00 76 1020.9
20260830014520 16 0.0 0.0 0.00 0.00 0.00 75 1020.8
20260830014020 16 0.0 0.0 0.00 0.00 0.00 73 1020.7
20260830013540 16 0.0 0.0 0.00 0.00 0.00 73 1020.6
20260830013019 16 0.0 0.0 0.00 0.00 0.00 73 1020.6
20260830012519 16 0.0 0.0 0.00 0.00 0.00 71 1020.6
20260830012021 16 0.0 0.0 0.00 0.00 0.00 72 1020.6
20260830011519 16 0.0 0.0 0.00 0.00 0.00 72 1020.6
20260830011020 16 0.0 0.0 0.00 0.00 0.00 71 1020.7
20260830010540 16 0.0 0.0 0.00 0.00 0.00 71 1020.8
20260830010100 16 0.0 0.0 0.00 0.00 0.00 71 1020.9
20260830005520 16 0.0 0.0 0.00 0.00 0.00 70 1021.0
20260830005019 17 0.0 0.0 0.00 0.00 0.00 69 1020.9
20260830004519 17 0.0 0.0 0.00 0.00 0.00 68 1021.0
20260830004019 17 0.0 0.0 0.00 0.00 0.00 68 1020.9
20260830003521 17 0.0 0.0 0.00 0.00 0.00 68 1020.8
20260830003021 17 0.0 0.0 0.00 0.00 0.00 67 1020.8
20260830002520 17 0.0 0.0 0.00 0.00 0.00 67 1020.8
20260830002040 17 0.0 0.0 0.00 0.00 0.00 67 1020.7
20260830001520 17 322 0.0 1.6 0.00 0.00 0.00 68 1020.7
20260830001020 18 322 0.0 1.6 0.00 0.00 0.00 66 1020.5
20260830000520 18 0.0 0.0 0.00 0.00 0.00 63 1020.2